KLM1775 EHAM-EDDB

Flight info

Callsign KLM1775
Flight time 1h 5m
Altitude 37000
Route ARNEM L620 SUVOX Z718 OSNAD DCT BATEL T207 OGBER OGBER1L
Aircraft B738/M-SDE2E3FGHIRWXY/LB1

Departure

Time 2026-05-04 09:14
Airport Amsterdam Airport Schiphol (EHAM)

Arrival

Time 2026-05-04 10:19
Airport Berlin Brandenburg Airport (EDDB)
Time Latitude Longitude Altitude Speed Heading
2026-05-04 07:56 52.31002 4.77240 -2 ft 0 kts 183°
2026-05-04 08:55 52.31014 4.77241 -2 ft 4 kts 186°
2026-05-04 08:55 52.31041 4.77248 -2 ft 4 kts 198°
2026-05-04 08:57 52.31073 4.77293 -2 ft 0 kts 273°
2026-05-04 09:01 52.31073 4.77287 -2 ft 4 kts 273°
2026-05-04 09:01 52.31078 4.77147 -2 ft 20 kts 273°
2026-05-04 09:01 52.31102 4.76961 -2 ft 14 kts 314°
2026-05-04 09:02 52.31154 4.76940 -2 ft 7 kts 15°
2026-05-04 09:02 52.31209 4.77003 -2 ft 12 kts 36°
2026-05-04 09:02 52.31291 4.77095 -2 ft 16 kts 34°
2026-05-04 09:02 52.31371 4.77183 -2 ft 5 kts 34°
2026-05-04 09:03 52.31401 4.77197 -2 ft 5 kts 359°
2026-05-04 09:03 52.31437 4.77193 -2 ft 6 kts 356°
2026-05-04 09:03 52.31488 4.77191 -2 ft 9 kts
2026-05-04 09:03 52.31558 4.77228 -2 ft 12 kts 45°
2026-05-04 09:04 52.31592 4.77343 -2 ft 9 kts 59°
2026-05-04 09:04 52.31627 4.77427 -2 ft 9 kts 56°
2026-05-04 09:04 52.31667 4.77521 -3 ft 10 kts 56°
2026-05-04 09:04 52.31706 4.77617 -2 ft 10 kts 56°
2026-05-04 09:05 52.31758 4.77684 -3 ft 10 kts 18°
2026-05-04 09:05 52.31828 4.77695 -3 ft 10 kts
2026-05-04 09:05 52.31897 4.77701 -2 ft 10 kts
2026-05-04 09:05 52.31964 4.77707 -2 ft 10 kts
2026-05-04 09:06 52.32018 4.77743 -2 ft 5 kts 37°
2026-05-04 09:07 52.32042 4.77778 -2 ft 0 kts 41°
2026-05-04 09:10 52.32043 4.77778 -2 ft 1 kts 41°
2026-05-04 09:10 52.32059 4.77802 -2 ft 6 kts 41°
2026-05-04 09:10 52.32108 4.77874 -3 ft 13 kts 46°
2026-05-04 09:10 52.32120 4.77988 -5 ft 0 kts 113°
2026-05-04 09:11 52.32114 4.77999 -5 ft 3 kts 132°
2026-05-04 09:11 52.32067 4.78012 -5 ft 11 kts 181°
2026-05-04 09:11 52.31881 4.77992 -4 ft 55 kts 183°
2026-05-04 09:11 52.31270 4.77936 -2 ft 118 kts 183°
2026-05-04 09:12 52.30265 4.77848 30 ft 165 kts 183°
2026-05-04 09:12 52.29117 4.77766 581 ft 166 kts 181°
2026-05-04 09:14 52.25559 4.88174 3771 ft 194 kts 89°
2026-05-04 09:14 52.25555 4.90468 4145 ft 210 kts 92°
2026-05-04 09:14 52.25486 4.92871 4529 ft 219 kts 92°
2026-05-04 09:14 52.25420 4.95443 4776 ft 235 kts 93°
2026-05-04 09:15 52.25326 4.98228 4950 ft 255 kts 94°
2026-05-04 09:15 52.25204 5.01230 5308 ft 271 kts 94°
2026-05-04 09:15 52.25084 5.04329 6000 ft 275 kts 94°
2026-05-04 09:15 52.24973 5.07473 6688 ft 279 kts 93°
2026-05-04 09:17 52.23958 5.35037 11548 ft 343 kts 96°
2026-05-04 09:18 52.23754 5.38936 12299 ft 346 kts 96°
2026-05-04 09:18 52.23551 5.42880 13040 ft 350 kts 96°
2026-05-04 09:18 52.23346 5.46877 13776 ft 355 kts 96°
2026-05-04 09:18 52.23141 5.50879 14453 ft 360 kts 96°
2026-05-04 09:19 52.22678 5.54941 15147 ft 361 kts 111°
2026-05-04 09:19 52.21782 5.58716 15867 ft 363 kts 115°
2026-05-04 09:19 52.20804 5.62546 16575 ft 367 kts 115°
2026-05-04 09:19 52.19812 5.66418 17279 ft 372 kts 115°
2026-05-04 09:20 52.18819 5.70342 17981 ft 376 kts 115°
2026-05-04 09:20 52.17827 5.74323 18626 ft 380 kts 115°
2026-05-04 09:20 52.16844 5.78299 19233 ft 384 kts 115°
2026-05-04 09:20 52.15846 5.82357 19858 ft 387 kts 115°
2026-05-04 09:21 52.14841 5.86451 20468 ft 391 kts 116°
2026-05-04 09:21 52.13825 5.90584 21071 ft 394 kts 116°
2026-05-04 09:21 52.12811 5.94703 21622 ft 398 kts 116°
2026-05-04 09:21 52.11777 5.98902 22227 ft 401 kts 116°
2026-05-04 09:22 52.10729 6.03136 22799 ft 404 kts 116°
2026-05-04 09:22 52.09681 6.07410 23368 ft 409 kts 115°
2026-05-04 09:22 52.08960 6.11949 23830 ft 419 kts 105°
2026-05-04 09:22 52.08486 6.16652 24304 ft 423 kts 103°
2026-05-04 09:23 52.08061 6.21408 24770 ft 426 kts 102°
2026-05-04 09:23 52.07628 6.26200 25208 ft 429 kts 103°
2026-05-04 09:23 52.07178 6.30946 25637 ft 432 kts 103°
2026-05-04 09:23 52.06695 6.35812 26075 ft 435 kts 104°
2026-05-04 09:25 52.03203 6.68922 28751 ft 456 kts 104°
2026-05-04 09:25 52.02653 6.74038 29135 ft 459 kts 104°
2026-05-04 09:26 52.02036 6.79139 29500 ft 460 kts 108°
2026-05-04 09:26 52.01269 6.84128 29857 ft 461 kts 110°
2026-05-04 09:26 52.00423 6.89178 30146 ft 464 kts 110°
2026-05-04 09:26 51.99571 6.94255 30424 ft 467 kts 109°
2026-05-04 09:27 51.98738 6.99372 30751 ft 469 kts 109°
2026-05-04 09:27 51.97930 7.04456 31071 ft 471 kts 107°
2026-05-04 09:27 51.97459 7.09786 31360 ft 479 kts 95°
2026-05-04 09:27 51.97567 7.15227 31658 ft 485 kts 86°
2026-05-04 09:28 51.98196 7.20556 32000 ft 488 kts 75°
2026-05-04 09:28 51.99239 7.25797 32437 ft 486 kts 72°
2026-05-04 09:28 52.00347 7.30982 32861 ft 485 kts 72°
2026-05-04 09:28 52.01464 7.36153 33195 ft 484 kts 72°
2026-05-04 09:29 52.02565 7.41318 33624 ft 482 kts 72°
2026-05-04 09:29 52.03643 7.46467 34067 ft 479 kts 73°
2026-05-04 09:29 52.04695 7.51581 34371 ft 479 kts 73°
2026-05-04 09:29 52.05733 7.56688 34535 ft 482 kts 73°
2026-05-04 09:30 52.06785 7.61904 34737 ft 484 kts 73°
2026-05-04 09:30 52.07830 7.67103 35034 ft 483 kts 73°
2026-05-04 09:30 52.08870 7.72292 35345 ft 481 kts 73°
2026-05-04 09:30 52.09896 7.77417 35599 ft 481 kts 73°
2026-05-04 09:31 52.10930 7.82591 35828 ft 482 kts 73°
2026-05-04 09:31 52.11966 7.87789 36078 ft 482 kts 73°
2026-05-04 09:31 52.12998 7.92981 36344 ft 481 kts 73°
2026-05-04 09:31 52.14028 7.98170 36637 ft 481 kts 73°
2026-05-04 09:32 52.15050 8.03340 36866 ft 481 kts 73°
2026-05-04 09:32 52.16076 8.08539 37004 ft 483 kts 74°
2026-05-04 09:34 52.23053 8.50589 37005 ft 476 kts 80°
2026-05-04 09:34 52.24397 8.61152 37003 ft 476 kts 80°
2026-05-04 09:35 52.25785 8.71746 36998 ft 477 kts 79°
2026-05-04 09:35 52.27177 8.82301 36995 ft 478 kts 79°
2026-05-04 09:37 52.32691 9.24905 36992 ft 480 kts 80°
2026-05-04 09:38 52.34052 9.35641 37006 ft 481 kts 80°
2026-05-04 09:38 52.35394 9.46301 36996 ft 482 kts 80°
2026-05-04 09:39 52.36733 9.57023 36997 ft 482 kts 80°
2026-05-04 09:39 52.38057 9.67699 36946 ft 468 kts 80°
2026-05-04 09:40 52.39337 9.78102 36926 ft 468 kts 80°
2026-05-04 09:40 52.40619 9.88633 36940 ft 479 kts 80°
2026-05-04 09:42 52.45716 10.31248 36847 ft 471 kts 81°
2026-05-04 09:43 52.46954 10.41821 36849 ft 471 kts 81°
2026-05-04 09:43 52.48184 10.52404 36833 ft 471 kts 81°
2026-05-04 09:44 52.49400 10.62951 36834 ft 471 kts 81°
2026-05-04 09:46 52.54181 11.05298 36608 ft 468 kts 81°
2026-05-04 09:46 52.54734 11.10516 36353 ft 459 kts 85°
2026-05-04 09:46 52.54993 11.15702 36029 ft 451 kts 90°
2026-05-04 09:47 52.55107 11.20849 35655 ft 452 kts 91°
2026-05-04 09:47 52.55180 11.26023 35274 ft 456 kts 92°
2026-05-04 09:49 52.55851 11.61676 32510 ft 435 kts 92°
2026-05-04 09:49 52.55951 11.66639 32130 ft 432 kts 92°
2026-05-04 09:49 52.56045 11.71476 31771 ft 429 kts 92°
2026-05-04 09:51 52.56567 12.00286 29590 ft 413 kts 91°
2026-05-04 09:51 52.56646 12.05001 29201 ft 410 kts 91°
2026-05-04 09:51 52.56717 12.09685 28827 ft 406 kts 92°
2026-05-04 09:51 52.56729 12.14263 28450 ft 403 kts 93°
2026-05-04 09:52 52.56717 12.18886 28119 ft 401 kts 93°
2026-05-04 09:52 52.56726 12.23453 27733 ft 400 kts 90°
2026-05-04 09:52 52.57020 12.28010 27372 ft 401 kts 83°
2026-05-04 09:52 52.57472 12.32543 27023 ft 402 kts 82°
2026-05-04 09:53 52.57949 12.37019 26659 ft 401 kts 82°
2026-05-04 09:53 52.58423 12.41527 26295 ft 398 kts 82°
2026-05-04 09:53 52.58878 12.46011 25938 ft 396 kts 83°
2026-05-04 09:53 52.59316 12.50473 25602 ft 393 kts 83°
2026-05-04 09:54 52.59741 12.54894 25230 ft 392 kts 83°
2026-05-04 09:54 52.60162 12.59340 24853 ft 390 kts 83°
2026-05-04 09:54 52.60577 12.63728 24508 ft 388 kts 83°
2026-05-04 09:54 52.60992 12.68136 24166 ft 387 kts 83°
2026-05-04 09:55 52.61402 12.72506 23809 ft 385 kts 83°
2026-05-04 09:55 52.61837 12.76803 23363 ft 387 kts 82°
2026-05-04 09:55 52.62311 12.81164 22970 ft 385 kts 81°
2026-05-04 09:55 52.62791 12.85492 22593 ft 383 kts 81°
2026-05-04 09:56 52.63267 12.89794 22245 ft 380 kts 81°
2026-05-04 09:56 52.63737 12.94083 21900 ft 377 kts 82°
2026-05-04 09:56 52.64196 12.98309 21556 ft 375 kts 82°
2026-05-04 09:56 52.64647 13.02492 21218 ft 372 kts 82°
2026-05-04 09:57 52.65095 13.06681 20889 ft 370 kts 82°
2026-05-04 09:57 52.65538 13.10845 20555 ft 367 kts 82°
2026-05-04 09:57 52.65972 13.14939 20228 ft 365 kts 82°
2026-05-04 09:57 52.66412 13.19104 19896 ft 363 kts 82°
2026-05-04 09:58 52.66836 13.23130 19591 ft 361 kts 82°
2026-05-04 09:58 52.67263 13.27202 19258 ft 359 kts 82°
2026-05-04 09:58 52.67689 13.31276 18933 ft 358 kts 82°
2026-05-04 10:00 52.70579 13.59282 16727 ft 341 kts 82°
2026-05-04 10:00 52.70968 13.63104 16580 ft 333 kts 82°
2026-05-04 10:02 52.63437 13.79185 15113 ft 270 kts 161°
2026-05-04 10:04 52.56330 13.94164 13369 ft 292 kts 69°
2026-05-04 10:04 52.57085 13.97313 13088 ft 297 kts 69°
2026-05-04 10:04 52.57837 14.00436 12762 ft 298 kts 69°
2026-05-04 10:04 52.58587 14.03622 12453 ft 298 kts 70°
2026-05-04 10:05 52.59329 14.06819 12181 ft 297 kts 70°
2026-05-04 10:05 52.60052 14.09952 11884 ft 297 kts 70°
2026-05-04 10:05 52.60787 14.13145 11556 ft 298 kts 70°
2026-05-04 10:05 52.61523 14.16350 11264 ft 297 kts 70°
2026-05-04 10:06 52.62252 14.19527 10996 ft 296 kts 70°
2026-05-04 10:06 52.62965 14.22712 10734 ft 295 kts 75°
2026-05-04 10:06 52.63105 14.26008 10447 ft 287 kts 106°
2026-05-04 10:08 52.54892 14.30111 8816 ft 232 kts 231°
2026-05-04 10:08 52.53929 14.28038 8557 ft 231 kts 234°
2026-05-04 10:08 52.53006 14.25889 8292 ft 229 kts 239°
2026-05-04 10:08 52.52385 14.23490 8042 ft 228 kts 249°
2026-05-04 10:09 52.51849 14.21045 7778 ft 227 kts 249°
2026-05-04 10:09 52.51302 14.18617 7509 ft 225 kts 249°
2026-05-04 10:09 52.50757 14.16221 7285 ft 223 kts 249°
2026-05-04 10:09 52.50212 14.13832 7039 ft 223 kts 249°
2026-05-04 10:10 52.49853 14.12264 6885 ft 222 kts 248°
2026-05-04 10:10 52.49133 14.09137 6556 ft 219 kts 248°
2026-05-04 10:10 52.48774 14.07582 6392 ft 218 kts 248°
2026-05-04 10:10 52.48234 14.05256 6135 ft 218 kts 250°
2026-05-04 10:11 52.47694 14.02926 5872 ft 218 kts 250°
2026-05-04 10:11 52.47154 14.00593 5614 ft 217 kts 250°
2026-05-04 10:11 52.46625 13.98313 5374 ft 216 kts 249°
2026-05-04 10:11 52.46093 13.96021 5251 ft 213 kts 249°
2026-05-04 10:12 52.45558 13.93718 4999 ft 217 kts 249°
2026-05-04 10:12 52.45024 13.91405 4768 ft 216 kts 250°
2026-05-04 10:12 52.44506 13.89113 4522 ft 215 kts 250°
2026-05-04 10:12 52.43979 13.86811 4270 ft 215 kts 250°
2026-05-04 10:13 52.43448 13.84523 4012 ft 214 kts 249°
2026-05-04 10:13 52.42915 13.82246 3782 ft 213 kts 249°
2026-05-04 10:13 52.42416 13.80000 3664 ft 206 kts 250°
2026-05-04 10:13 52.41915 13.77816 3407 ft 203 kts 249°
2026-05-04 10:14 52.41409 13.75678 3136 ft 200 kts 249°
2026-05-04 10:14 52.40913 13.73599 2863 ft 197 kts 249°
2026-05-04 10:16 52.37949 13.61173 1289 ft 140 kts 249°
2026-05-04 10:16 52.37598 13.59719 1131 ft 135 kts 249°
2026-05-04 10:16 52.37251 13.58295 977 ft 134 kts 250°
2026-05-04 10:16 52.36908 13.56814 765 ft 146 kts 250°
2026-05-04 10:17 52.36535 13.55257 579 ft 146 kts 249°
2026-05-04 10:17 52.36178 13.53742 376 ft 140 kts 250°
2026-05-04 10:19 52.35105 13.48595 153 ft 5 kts 284°
2026-05-04 10:19 52.35105 13.48591 153 ft 0 kts 285°
2026-05-04 10:19 52.35106 13.48590 153 ft 0 kts 285°
2026-05-04 10:20 52.35108 13.48578 153 ft 2 kts 289°
2026-05-04 10:20 52.35114 13.48559 153 ft 1 kts 302°
2026-05-04 10:20 52.35116 13.48555 153 ft 0 kts 305°
2026-05-04 10:20 52.35117 13.48554 153 ft 1 kts 306°
2026-05-04 10:21 52.35123 13.48541 153 ft 2 kts 310°
2026-05-04 10:21 52.35140 13.48516 153 ft 4 kts 322°
2026-05-04 10:21 52.35153 13.48506 153 ft 0 kts 342°
2026-05-04 10:21 52.35154 13.48506 153 ft 0 kts 342°
2026-05-04 10:22 52.35182 13.48497 153 ft 4 kts 350°
2026-05-04 10:22 52.35231 13.48487 153 ft 10 kts
2026-05-04 10:22 52.35287 13.48582 153 ft 15 kts 72°
2026-05-04 10:23 52.35332 13.48761 153 ft 19 kts 66°
2026-05-04 10:23 52.35386 13.48975 153 ft 22 kts 70°
2026-05-04 10:25 52.35851 13.50642 153 ft 12 kts 13°
2026-05-04 10:25 52.35899 13.50751 153 ft 12 kts 68°
2026-05-04 10:25 52.35931 13.50879 154 ft 12 kts 68°
2026-05-04 10:25 52.35961 13.51003 154 ft 12 kts 68°
2026-05-04 10:26 52.35990 13.51122 154 ft 11 kts 68°
2026-05-04 10:26 52.36019 13.51242 154 ft 12 kts 69°
2026-05-04 10:26 52.36049 13.51376 154 ft 13 kts 73°
2026-05-04 10:26 52.36080 13.51524 154 ft 13 kts 69°
2026-05-04 10:27 52.36116 13.51586 154 ft 7 kts 359°
2026-05-04 10:27 52.36162 13.51558 154 ft 4 kts 337°
2026-05-04 10:27 52.36180 13.51547 154 ft 1 kts 339°
2026-05-04 10:27 52.36182 13.51546 154 ft 0 kts 339°